This is the latest recevied weather packets stored in our database for station/object KI4HRG. If no packets are shown the sender has not sent any weather packets the latest 10 day(s).
| Time | Temp. | Humidity | Pressure | Rain* | Wind** | Luminosity | Snow |
|---|---|---|---|---|---|---|---|
| 1777764178 | 18.89° C | 42% | 1015.2 hPa | 0 mm | - | 35 W/m² | - |
| 1777763874 | 18.89° C | 40% | 1015.1 hPa | 0 mm | - | 41 W/m² | - |
| 1777763572 | 19.44° C | 40% | 1015.3 hPa | 0 mm | - | 50 W/m² | - |
| 1777763271 | 19.44° C | 39% | 1015.1 hPa | 0 mm | - | 68 W/m² | - |
| 1777762968 | 19.44° C | 39% | 1015.1 hPa | 0 mm | - | 53 W/m² | - |
| 1777762665 | 19.44° C | 40% | 1015.2 hPa | 0 mm | - | 42 W/m² | - |
| 1777762362 | 19.44° C | 39% | 1015.3 hPa | 0 mm | - | 51 W/m² | - |
| 1777762058 | 19.44° C | 39% | 1015.3 hPa | 0 mm | - | 47 W/m² | - |
| 1777761755 | 19.44° C | 39% | 1015.3 hPa | 0 mm | - | 47 W/m² | - |
| 1777761452 | 20° C | 39% | 1015.3 hPa | 0 mm | - | 90 W/m² | - |
| 1777761150 | 19.44° C | 39% | 1015.3 hPa | 0 mm | - | 173 W/m² | - |
| 1777760848 | 20° C | 39% | 1015.3 hPa | 0 mm | - | 156 W/m² | - |
| 1777760544 | 20° C | 38% | 1015.2 hPa | 0 mm | - | 124 W/m² | - |
| 1777760240 | 20° C | 38% | 1015.2 hPa | 0 mm | - | 286 W/m² | - |
| 1777759937 | 20° C | 39% | 1015 hPa | 0 mm | - | 286 W/m² | - |
| 1777759633 | 20° C | 40% | 1015.1 hPa | 0 mm | - | 96 W/m² | - |
| 1777759330 | 20° C | 39% | 1015 hPa | 0 mm | - | 86 W/m² | - |
| 1777759027 | 20° C | 38% | 1015.1 hPa | 0 mm | - | 327 W/m² | - |
| 1777758724 | 20° C | 38% | 1015 hPa | 0 mm | - | 331 W/m² | - |
| 1777758421 | 20° C | 38% | 1015 hPa | 0 mm | - | 348 W/m² | - |
| 1777758118 | 20° C | 39% | 1015 hPa | 0 mm | - | 359 W/m² | - |
| 1777757815 | 20° C | 38% | 1015 hPa | 0 mm | - | 154 W/m² | - |
| 1777757512 | 20.56° C | 36% | 1015.1 hPa | 0 mm | - | 92 W/m² | - |
| 1777757211 | 21.11° C | 38% | 1014.9 hPa | 0 mm | - | 406 W/m² | - |
| 1777756909 | 20.56° C | 37% | 1014.8 hPa | 0 mm | - | 399 W/m² | - |
* Rain latest hour (hover to see other rain measurements)
** Current wind speed in m/s (hover to see current wind gust speed)